San Diego, CA

9:34 AM PDT on August 20, 2017 (GMT -0700)
San Diego International-Lindbergh

Weather History for KSAN - May, 2014

Change the Weather History Date:

Saturday, May 17, 2014

  Actual Average Record
Temperature  
Mean Temperature 67 °F 64 °F  
Max Temperature 71 °F 68 °F 94 °F (1956)
Min Temperature 63 °F 60 °F 48 °F (1894)
Degree Days  
Heating Degree Days 0 2  
Month to date heating degree days 8 36  
Since 1 July heating degree days 545 1185  
Cooling Degree Days 2 1  
Month to date cooling degree days 123 17  
Year to date cooling degree days 207 41  
Growing Degree Days 17 (Base 50)    
Moisture  
Dew Point 59 °F    
Average Humidity 83    
Maximum Humidity 100    
Minimum Humidity 66    
Precipitation  
Precipitation 0.00 in 0.00 in 0.29 in (1883)
Month to date precipitation T 0.08  
Year to date precipitation 2.82 6.92  
Since 1 July precipitation 5.06  
Snow  
Snow 0.00 in - - ()
Month to date snowfall 0.0  
Year to date snowfall 0.0  
Snow Depth 0.00 in    
Sea Level Pressure  
Sea Level Pressure 29.92 in    
Wind  
Wind Speed 8 mph (South)    
Max Wind Speed 13 mph    
Max Gust Speed 16 mph    
Visibility 5 miles    
Events      
T = Trace of Precipitation, MM = Missing Value Source: NWS Daily Summary

Daily Weather History Graph

Daily Weather History Graph

Search for Another Location

Airport or City:

Trip Planner

Search our weather history database for the weather conditions in past years. The results will help you decide how hot, cold, wet, or windy it might be!

Date:

Astronomy

May. 17, 2014 Rise Set
Actual Time 5:48 AM PDT 7:42 PM PDT
Civil Twilight 5:21 AM PDT 8:09 PM PDT
Nautical Twilight 4:48 AM PDT 8:42 PM PDT
Astronomical Twilight 4:13 AM PDT 9:17 PM PDT
Moon 10:48 PM PDT (5/17) 8:35 AM PDT (5/17)
Length of Visible Light 14h 48m
Length of Day
13h 53m
Waning Gibbous, 88% of the Moon is Illuminated
May 17
Waning Gibbous
May 21
Last Quarter
May 28
New
Jun 5
First Quarter
Jun 12
Full

Hourly Weather History & Observations

Time (PDT) Temp. Dew Point Humidity Pressure Visibility Wind Dir Wind Speed Gust Speed Precip Events Conditions
12:51 AM 66.2 °F 62.6 °F 88% 29.93 in 6.0 mi South 6.9 mph - N/A   Scattered Clouds
1:51 AM 66.2 °F 62.6 °F 88% 29.92 in 5.0 mi South 6.9 mph - N/A   Scattered Clouds
2:01 AM 66.2 °F 62.6 °F 88% 29.92 in 2.5 mi SSW 5.8 mph - N/A   Overcast
2:08 AM 64.4 °F 62.6 °F 94% 29.92 in 2.0 mi South 6.9 mph - N/A   Overcast
2:12 AM 64.4 °F 62.6 °F 94% 29.92 in 1.5 mi SSW 6.9 mph - N/A   Overcast
2:51 AM 64.0 °F 62.1 °F 93% 29.91 in 1.5 mi SW 5.8 mph - N/A   Overcast
2:57 AM 64.4 °F 62.6 °F 94% 29.91 in 0.8 mi South 3.5 mph - N/A   Overcast
3:51 AM 63.0 °F 62.1 °F 97% 29.91 in 0.8 mi SSE 3.5 mph - N/A   Overcast
3:58 AM 64.4 °F 62.6 °F 94% 29.91 in 1.2 mi SSE 3.5 mph - N/A   Overcast
4:01 AM 64.4 °F 62.6 °F 94% 29.90 in 2.0 mi South 5.8 mph - N/A   Overcast
4:31 AM 62.6 °F 60.8 °F 94% 29.91 in 1.8 mi SSE 4.6 mph - N/A   Overcast
4:40 AM 62.6 °F 60.8 °F 94% 29.91 in 2.5 mi SE 4.6 mph - N/A   Overcast
4:51 AM 63.0 °F 61.0 °F 93% 29.91 in 2.5 mi Calm Calm - N/A   Overcast
5:11 AM 62.6 °F 60.8 °F 94% 29.90 in 4.0 mi SE 5.8 mph - N/A   Overcast
5:19 AM 62.6 °F 60.8 °F 94% 29.90 in 4.0 mi SSE 5.8 mph - N/A   Overcast
5:51 AM 64.0 °F 60.1 °F 87% 29.91 in 6.0 mi South 8.1 mph - N/A   Overcast
6:03 AM 64.4 °F 59.0 °F 83% 29.91 in 6.0 mi South 8.1 mph - N/A   Overcast
6:51 AM 64.0 °F 59.0 °F 84% 29.92 in 5.0 mi SSE 10.4 mph - N/A   Mostly Cloudy
7:51 AM 63.0 °F 57.9 °F 84% 29.94 in 6.0 mi SSE 8.1 mph - N/A   Haze
8:51 AM 64.9 °F 57.9 °F 78% 29.95 in 6.0 mi South 9.2 mph - N/A   Haze
9:51 AM 66.9 °F 57.9 °F 73% 29.94 in 6.0 mi South 9.2 mph - N/A   Haze
10:07 AM 66.2 °F 57.2 °F 73% 29.94 in 6.0 mi South 9.2 mph - N/A   Haze
10:51 AM 68.0 °F 57.9 °F 70% 29.94 in 7.0 mi South 9.2 mph - N/A   Mostly Cloudy
11:51 AM 69.1 °F 57.9 °F 68% 29.94 in 8.0 mi SSW 10.4 mph - N/A   Mostly Cloudy
12:51 PM 70.0 °F 57.9 °F 65% 29.93 in 8.0 mi South 10.4 mph - N/A   Scattered Clouds
1:51 PM 70.0 °F 57.9 °F 65% 29.93 in 9.0 mi SSW 9.2 mph - N/A   Scattered Clouds
2:51 PM 70.0 °F 57.9 °F 65% 29.91 in 8.0 mi South 9.2 mph - N/A   Scattered Clouds
3:51 PM 69.1 °F 57.9 °F 68% 29.90 in 8.0 mi South 10.4 mph - N/A   Scattered Clouds
4:51 PM 69.1 °F 57.9 °F 68% 29.90 in 8.0 mi SW 8.1 mph - N/A   Scattered Clouds
5:51 PM 68.0 °F 57.9 °F 70% 29.89 in 8.0 mi SW 6.9 mph - N/A   Scattered Clouds
6:51 PM 68.0 °F 57.9 °F 70% 29.88 in 7.0 mi SW 6.9 mph - N/A   Scattered Clouds
7:51 PM 66.0 °F 57.9 °F 75% 29.89 in 7.0 mi South 5.8 mph - N/A   Mostly Cloudy
8:51 PM 64.9 °F 57.9 °F 78% 29.90 in 8.0 mi SSE 5.8 mph - N/A   Overcast
9:51 PM 64.9 °F 57.0 °F 75% 29.92 in 8.0 mi SSW 6.9 mph - N/A   Overcast
10:51 PM 64.0 °F 55.9 °F 75% 29.92 in 8.0 mi SSW 5.8 mph - N/A   Overcast
11:51 PM 64.0 °F 57.0 °F 78% 29.92 in 8.0 mi South 8.1 mph - N/A   Overcast